• In Moldova, Republic
  • List of Countries
  • For 7 days
  • Water Temperature
  • Satellite Maps
  • Weather Map
  • Weather Widgets
  • user-avatar
    Login

    Hourly Weather Quito

    Today, 16 August, Thursday

    Time Temperature Precipitation Wind Pressure Humidity
    00:00 +19°C° 0 mm 1 mps 624 mmHg 29%
    01:00 +19°C° 0 mm 1 mps 624 mmHg 34%
    02:00 +18°C° 0 mm 1 mps 624 mmHg 35%
    03:00 +16°C° 0 mm 1 mps 624 mmHg 37%
    04:00 +16°C° 0 mm 1 mps 624 mmHg 39%
    05:00 +16°C° 0 mm 1 mps 624 mmHg 39%
    06:00 +16°C° 0 mm 1 mps 624 mmHg 39%
    07:00 +18°C° 0 mm 1 mps 625 mmHg 38%
    08:00 +20°C° 0 mm 2 mps 626 mmHg 33%
    09:00 +25°C° 0 mm 3 mps 627 mmHg 27%
    10:00 +28°C° 0 mm 3 mps 627 mmHg 21%
    11:00 +29°C° 0 mm 3 mps 627 mmHg 19%
    12:00 +30°C° 0 mm 3 mps 627 mmHg 17%
    13:00 +33°C° 0 mm 3 mps 627 mmHg 15%
    14:00 +32°C° 0 mm 2 mps 626 mmHg 15%
    15:00 +32°C° 0 mm 2 mps 625 mmHg 14%
    16:00 +31°C° 0 mm 2 mps 625 mmHg 14%
    17:00 +29°C° 0 mm 1 mps 624 mmHg 16%
    18:00 +26°C° 0 mm 1 mps 624 mmHg 19%
    19:00 +21°C° 0 mm 0 mps 623 mmHg 22%
    20:00 +21°C° 0 mm 0 mps 623 mmHg 22%
    21:00 +20°C° 0 mm 0 mps 624 mmHg 23%
    22:00 +19°C° 0 mm 0 mps 624 mmHg 24%
    23:00 +21°C° 0 mm 1 mps 624 mmHg 25%

    Tomorrow, 17 August, Friday

    Time Temperature Precipitation Wind Pressure Humidity
    00:00 +20°C° 0 mm 1 mps 624 mmHg 26%
    01:00 +19°C° 0 mm 1 mps 623 mmHg 28%
    02:00 +18°C° 0 mm 1 mps 623 mmHg 29%
    03:00 +18°C° 0 mm 1 mps 623 mmHg 30%
    04:00 +15°C° 0 mm 0 mps 622 mmHg 31%
    05:00 +15°C° 0 mm 0 mps 623 mmHg 31%
    06:00 +16°C° 0 mm 0 mps 623 mmHg 30%
    07:00 +16°C° 0 mm 0 mps 624 mmHg 30%
    08:00 +22°C° 0 mm 1 mps 625 mmHg 24%
    09:00 +25°C° 0 mm 2 mps 626 mmHg 19%
    10:00 +28°C° 0 mm 3 mps 627 mmHg 13%
    11:00 +30°C° 0 mm 3 mps 626 mmHg 12%
    12:00 +31°C° 0 mm 3 mps 626 mmHg 11%
    13:00 +33°C° 0 mm 3 mps 626 mmHg 11%
    14:00 +32°C° 0 mm 2 mps 625 mmHg 10%
    15:00 +32°C° 0 mm 2 mps 624 mmHg 10%
    16:00 +32°C° 0 mm 1 mps 624 mmHg 10%
    17:00 +29°C° 0 mm 1 mps 623 mmHg 12%
    18:00 +27°C° 0 mm 1 mps 623 mmHg 14%
    19:00 +24°C° 0 mm 1 mps 622 mmHg 16%
    20:00 +23°C° 0 mm 1 mps 622 mmHg 17%
    21:00 +22°C° 0 mm 1 mps 623 mmHg 18%
    22:00 +19°C° 0 mm 0 mps 623 mmHg 19%
    23:00 +21°C° 0 mm 1 mps 623 mmHg 20%

    Day after tomorrow, 18 August, Saturday

    Time Temperature Precipitation Wind Pressure Humidity
    00:00 +20°C° 0 mm 1 mps 622 mmHg 21%
    01:00 +19°C° 0 mm 1 mps 622 mmHg 22%
    02:00 +18°C° 0 mm 1 mps 621 mmHg 23%
    03:00 +18°C° 0 mm 1 mps 621 mmHg 24%
    04:00 +16°C° 0 mm 1 mps 621 mmHg 25%
    05:00 +16°C° 0 mm 1 mps 621 mmHg 25%
    06:00 +16°C° 0 mm 1 mps 622 mmHg 25%
    07:00 +16°C° 0 mm 0 mps 622 mmHg 25%
    08:00 +22°C° 0 mm 1 mps 623 mmHg 20%
    09:00 +25°C° 0 mm 2 mps 625 mmHg 15%
    10:00 +29°C° 0 mm 3 mps 626 mmHg 11%
    11:00 +31°C° 0 mm 3 mps 626 mmHg 10%
    12:00 +33°C° 0 mm 3 mps 625 mmHg 9%
    13:00 +34°C° 0 mm 3 mps 625 mmHg 8%
    14:00 +34°C° 0 mm 2 mps 624 mmHg 8%
    15:00 +34°C° 0 mm 2 mps 624 mmHg 8%
    16:00 +32°C° 0 mm 2 mps 623 mmHg 8%
    17:00 +30°C° 0 mm 1 mps 623 mmHg 10%
    18:00 +27°C° 0 mm 1 mps 622 mmHg 12%
    19:00 +24°C° 0 mm 1 mps 622 mmHg 14%
    20:00 +23°C° 0 mm 1 mps 622 mmHg 14%
    21:00 +22°C° 0 mm 1 mps 623 mmHg 15%
    22:00 +22°C° 0 mm 1 mps 623 mmHg 15%
    23:00 +21°C° 0 mm 1 mps 623 mmHg 16%

    19 August, Sunday

    Time Temperature Precipitation Wind Pressure Humidity
    00:00 +20°C° 0 mm 1 mps 622 mmHg 18%
    01:00 +19°C° 0 mm 1 mps 622 mmHg 19%
    02:00 +18°C° 0 mm 1 mps 622 mmHg 20%
    03:00 +18°C° 0 mm 1 mps 621 mmHg 22%
    04:00 +16°C° 0 mm 1 mps 621 mmHg 23%
    05:00 +16°C° 0 mm 1 mps 621 mmHg 23%
    06:00 +16°C° 0 mm 1 mps 622 mmHg 23%
    07:00 +18°C° 0 mm 1 mps 623 mmHg 23%
    08:00 +21°C° 0 mm 2 mps 624 mmHg 19%
    09:00 +25°C° 0 mm 3 mps 625 mmHg 16%
    10:00 +29°C° 0 mm 4 mps 626 mmHg 12%
    11:00 +30°C° 0 mm 4 mps 626 mmHg 11%
    12:00 +32°C° 0 mm 4 mps 625 mmHg 10%
    13:00 +34°C° 0 mm 4 mps 625 mmHg 10%
    14:00 +34°C° 0 mm 3 mps 624 mmHg 9%
    15:00 +33°C° 0 mm 3 mps 624 mmHg 9%
    16:00 +32°C° 0 mm 2 mps 623 mmHg 9%
    17:00 +29°C° 0 mm 2 mps 623 mmHg 11%
    18:00 +27°C° 0 mm 1 mps 622 mmHg 13%
    19:00 +24°C° 0 mm 1 mps 622 mmHg 15%
    20:00 +23°C° 0 mm 1 mps 622 mmHg 16%
    21:00 +23°C° 0 mm 1 mps 623 mmHg 17%
    22:00 +22°C° 0 mm 1 mps 623 mmHg 17%
    23:00 +21°C° 0 mm 1 mps 623 mmHg 21%

    20 August, Monday

    Time Temperature Precipitation Wind Pressure Humidity
    00:00 +20°C° 0 mm 1 mps 622 mmHg 25%
    01:00 +19°C° 0 mm 1 mps 622 mmHg 28%
    02:00 +17°C° 0 mm 2 mps 622 mmHg 34%
    03:00 +17°C° 0 mm 2 mps 621 mmHg 39%
    04:00 +16°C° 0 mm 2 mps 621 mmHg 44%
    05:00 +16°C° 0 mm 2 mps 622 mmHg 47%
    06:00 +17°C° 0 mm 2 mps 622 mmHg 49%
    07:00 +17°C° 0 mm 2 mps 623 mmHg 51%
    08:00 +20°C° 0 mm 2 mps 624 mmHg 41%
    09:00 +25°C° 0 mm 2 mps 625 mmHg 32%
    10:00 +28°C° 0 mm 2 mps 626 mmHg 23%
    11:00 +30°C° 0 mm 2 mps 626 mmHg 19%
    12:00 +32°C° 0 mm 2 mps 625 mmHg 16%
    13:00 +34°C° 0 mm 2 mps 625 mmHg 13%
    14:00 +34°C° 0 mm 2 mps 624 mmHg 13%
    15:00 +32°C° 0 mm 2 mps 624 mmHg 12%
    16:00 +32°C° 0 mm 2 mps 623 mmHg 12%
    17:00 +29°C° 0 mm 1 mps 623 mmHg 15%
    18:00 +27°C° 0 mm 1 mps 622 mmHg 17%
    19:00 +24°C° 0 mm 1 mps 622 mmHg 19%
    20:00 +24°C° 0 mm 1 mps 622 mmHg 20%
    21:00 +23°C° 0 mm 1 mps 623 mmHg 21%
    22:00 +22°C° 0 mm 1 mps 623 mmHg 23%
    23:00 +21°C° 0 mm 1 mps 622 mmHg 28%

    21 August, Tuesday

    Time Temperature Precipitation Wind Pressure Humidity
    00:00 +20°C° 0 mm 1 mps 622 mmHg 32%
    01:00 +19°C° 0 mm 2 mps 622 mmHg 37%
    02:00 +18°C° 0 mm 2 mps 622 mmHg 41%
    03:00 +17°C° 0 mm 2 mps 621 mmHg 45%
    04:00 +17°C° 0 mm 2 mps 621 mmHg 49%
    05:00 +17°C° 0 mm 2 mps 622 mmHg 51%
    06:00 +17°C° 0 mm 2 mps 622 mmHg 52%
    07:00 +18°C° 0 mm 2 mps 623 mmHg 54%
    08:00 +21°C° 0 mm 2 mps 624 mmHg 44%
    09:00 +25°C° 0 mm 2 mps 625 mmHg 34%
    10:00 +28°C° 0 mm 3 mps 626 mmHg 23%
    11:00 +31°C° 0 mm 2 mps 626 mmHg 20%
    12:00 +34°C° 0 mm 1 mps 626 mmHg 16%
    13:00 +34°C° 0 mm 0 mps 626 mmHg 12%
    14:00 +33°C° 0 mm 0 mps 625 mmHg 13%
    15:00 +34°C° 0 mm 1 mps 624 mmHg 13%
    16:00 +33°C° 0 mm 1 mps 623 mmHg 13%
    17:00 +30°C° 0 mm 1 mps 623 mmHg 16%
    18:00 +28°C° 0 mm 1 mps 623 mmHg 18%
    19:00 +25°C° 0 mm 1 mps 622 mmHg 21%
    20:00 +25°C° 0 mm 1 mps 623 mmHg 22%
    21:00 +24°C° 0 mm 1 mps 623 mmHg 24%
    22:00 +23°C° 0 mm 1 mps 623 mmHg 26%
    23:00 +21°C° 0 mm 2 mps 623 mmHg 30%
    Show more